Location: Altmatt
(47.1333°N, 8.7000°E)
Time: 17:56:27
(UTC+00:00)

USA 32 - Pass Details

Date: 13 July 2020
Orbit: 776 x 784 km, 85.0° (Epoch: 09 August)

Event Time Altitude Azimuth Distance (km) Brightness Sun altitude
Exits shadow 23:23:45 45° 160° (SSE) 1,053 4.2 -21.2°
Maximum altitude 23:25:17 70° 92° (E) 832 4.1 -21.2°
Drops below altitude 10° 23:30:31 10° 10° (N) 2,348 7.7 -21.2°
Sets 23:32:53 0° 8° (N) 3,280 8.8 -21.2°
